Location: Chevoux
(46.3801°N, 4.9476°E)
Time: 11:41:30
(UTC+00:00)

Aureole 3 - Pass Details

Date: 28 January 2021
Orbit: 381 x 1231 km, 82.5° (Epoch: 06 March)

Event Time Altitude Azimuth Distance (km) Brightness Sun altitude
Rises 17:12:07 0° 352° (N) 2,388 6.5 -6.1°
Reaches altitude 10° 17:14:13 10° 355° (N) 1,462 5.4 -6.5°
Maximum altitude 17:17:17 71° 81° (E) 411 2.5 -7.0°
Drops below altitude 10° 17:20:14 10° 166° (SSE) 1,405 5.5 -7.4°
Sets 17:22:13 0° 168° (SSE) 2,281 6.6 -7.8°
